TimePDT,TemperatureF,Dew PointF,Humidity,Sea Level PressureIn,VisibilityMPH,Wind Direction,Wind SpeedMPH,Gust SpeedMPH,PrecipitationIn,Events,Conditions,WindDirDegrees,DateUTC
12:53 AM,68.0,57.0,68,29.85,10.0,WNW,8.1,-,N/A,,Clear,290,2013-08-25 07:53:00
1:53 AM,66.9,57.0,70,29.86,10.0,WNW,8.1,-,N/A,,Clear,300,2013-08-25 08:53:00
2:53 AM,66.0,55.9,70,29.86,10.0,NW,6.9,-,N/A,,Clear,320,2013-08-25 09:53:00
3:53 AM,63.0,55.9,78,29.85,10.0,West,4.6,-,N/A,,Clear,280,2013-08-25 10:53:00
4:53 AM,63.0,55.9,78,29.86,10.0,Calm,Calm,-,N/A,,Clear,0,2013-08-25 11:53:00
5:53 AM,62.1,57.0,84,29.87,10.0,WNW,6.9,-,N/A,,Clear,290,2013-08-25 12:53:00
6:53 AM,62.1,57.0,84,29.89,10.0,WNW,4.6,-,N/A,,Clear,300,2013-08-25 13:53:00
7:53 AM,66.9,57.0,70,29.91,10.0,NW,5.8,-,N/A,,Clear,310,2013-08-25 14:53:00
8:53 AM,73.9,57.9,57,29.91,10.0,NNW,9.2,-,N/A,,Clear,330,2013-08-25 15:53:00
9:53 AM,78.1,59.0,52,29.92,10.0,WNW,8.1,-,N/A,,Clear,300,2013-08-25 16:53:00
10:53 AM,81.0,59.0,47,29.93,10.0,NW,9.2,-,N/A,,Clear,310,2013-08-25 17:53:00
11:53 AM,82.9,57.0,41,29.92,10.0,Variable,5.8,-,N/A,,Clear,0,2013-08-25 18:53:00
12:53 PM,87.1,54.0,32,29.90,10.0,NNE,3.5,-,N/A,,Clear,20,2013-08-25 19:53:00
1:53 PM,89.1,53.1,29,29.89,10.0,Variable,5.8,-,N/A,,Clear,0,2013-08-25 20:53:00
2:53 PM,90.0,53.1,28,29.87,10.0,Calm,Calm,-,N/A,,Clear,0,2013-08-25 21:53:00
3:53 PM,91.9,52.0,26,29.85,10.0,Variable,3.5,-,N/A,,Clear,0,2013-08-25 22:53:00
4:53 PM,93.0,51.1,24,29.83,10.0,West,5.8,-,N/A,,Clear,280,2013-08-25 23:53:00
5:53 PM,91.9,50.0,24,29.81,10.0,WNW,5.8,-,N/A,,Clear,290,2013-08-26 00:53:00
6:53 PM,89.1,54.0,30,29.81,10.0,WNW,5.8,-,N/A,,Clear,300,2013-08-26 01:53:00
7:53 PM,82.0,55.0,39,29.82,10.0,WNW,8.1,-,N/A,,Clear,290,2013-08-26 02:53:00
8:53 PM,78.1,54.0,43,29.84,10.0,North,-9999.0,-,N/A,,Clear,0,2013-08-26 03:53:00
9:53 PM,75.0,54.0,48,29.86,10.0,North,-9999.0,-,N/A,,Clear,0,2013-08-26 04:53:00
10:53 PM,73.0,57.9,59,29.87,10.0,North,-9999.0,-,N/A,,Clear,0,2013-08-26 05:53:00
11:53 PM,71.1,57.9,63,29.88,10.0,North,-9999.0,-,N/A,,Clear,0,2013-08-26 06:53:00